Weather History for EPWA - February, 2013

Change the Weather History Date:

Wednesday, February 13, 2013

  Actual Average Record
Temperature  
Mean Temperature 30 °F -  
Max Temperature 34 °F 38 °F 48 °F (1997)
Min Temperature 26 °F 26 °F -4 °F (2003)
Degree Days  
Heating Degree Days 35    
Moisture  
Dew Point 27 °F    
Average Humidity 83    
Maximum Humidity 93    
Minimum Humidity 70    
Precipitation  
Precipitation 0.00 in 0.03 in - ()
Sea Level Pressure  
Sea Level Pressure 30.16 in    
Wind  
Wind Speed 12 mph ()    
Max Wind Speed 17 mph    
Max Gust Speed -    
Visibility 6.6 miles    
Events      
Averages and records for this station are not official NWS values.
T = Trace of Precipitation, MM = Missing Value Source: Averaged Metar Reports

Daily Weather History Graph

Daily Weather History Graph

Search for Another Location

Airport or City:

Trip Planner

Search our weather history database for the weather conditions in past years. The results will help you decide how hot, cold, wet, or windy it might be!

Date:

Astronomy

Feb. 13, 2013 Rise Set
Actual Time 6:55 AM CET 4:46 PM CET
Civil Twilight 6:20 AM CET 5:21 PM CET
Nautical Twilight 5:40 AM CET 6:01 PM CET
Astronomical Twilight 5:01 AM CET 6:40 PM CET
Moon 7:42 AM CET (2/13) 9:06 PM CET (2/13)
Length of Visible Light 11h 01m
Length of Day
9h 50m
Waxing Crescent, 12% of the Moon is Illuminated
Feb 13
Waxing Crescent
Feb 17
First Quarter
Feb 25
Full
Mar 4
Last Quarter
Mar 11
New

Hourly Weather History & Observations

Time (CET) Temp. Windchill Dew Point Humidity Pressure Visibility Wind Dir Wind Speed Gust Speed Precip Events Conditions
12:00 AM 26.6 °F 14.3 °F 23.0 °F 86% 30.04 in 6.2 mi ESE 16.1 mph - N/A   Mostly Cloudy
12:30 AM 26.6 °F 14.7 °F 23.0 °F 86% 30.04 in 6.2 mi ESE 15.0 mph - N/A   Mostly Cloudy
1:00 AM 27 °F - 23 °F 80% 30.09 in 6 mi ESE 13.4 mph - -   Partly Cloudy
1:00 AM 26.6 °F 14.7 °F 24.8 °F 93% 30.04 in 6.2 mi ESE 15.0 mph - N/A   Scattered Clouds
1:30 AM 26.6 °F 16.2 °F 24.8 °F 93% 30.04 in 6.2 mi ESE 11.5 mph - N/A   Mostly Cloudy
2:00 AM 28.4 °F 18.0 °F 24.8 °F 86% 30.04 in 6.2 mi ESE 12.7 mph - N/A   Mostly Cloudy
2:30 AM 28.4 °F 18.0 °F 24.8 °F 86% 30.04 in 6.2 mi North 12.7 mph - N/A   Mostly Cloudy
3:00 AM 28.4 °F 18.5 °F 24.8 °F 86% 30.04 in 6.2 mi ESE 11.5 mph - N/A   Mostly Cloudy
3:30 AM 28.4 °F 17.5 °F 26.6 °F 93% 30.04 in 6.2 mi East 13.8 mph - N/A   Scattered Clouds
4:00 AM 29 °F - 26 °F 81% 30.09 in 9 mi ESE 13.4 mph - -   Overcast
4:00 AM 30.2 °F 20.2 °F 26.6 °F 86% 30.06 in 6.2 mi ESE 12.7 mph - N/A   Mostly Cloudy
4:30 AM 30.2 °F 19.8 °F 26.6 °F 86% 30.06 in 6.2 mi East 13.8 mph - N/A   Mostly Cloudy
5:00 AM 30.2 °F 20.2 °F 26.6 °F 86% 30.06 in 6.2 mi ESE 12.7 mph - N/A   Mostly Cloudy
5:30 AM 30.2 °F 20.2 °F 26.6 °F 86% 30.06 in 6.2 mi ESE 12.7 mph - N/A   Mostly Cloudy
6:00 AM 30.2 °F 18.9 °F 24.8 °F 80% 30.06 in 6.2 mi ESE 16.1 mph - N/A   Mostly Cloudy
6:30 AM 30.2 °F 19.8 °F 24.8 °F 80% 30.06 in 6.2 mi ESE 13.8 mph - N/A   Mostly Cloudy
7:00 AM 29 °F - 25 °F 79% 30.13 in 9 mi ESE 13.4 mph - -   Overcast
7:00 AM 30.2 °F 19.3 °F 24.8 °F 80% 30.09 in 6.2 mi ESE 15.0 mph - N/A   Mostly Cloudy
7:30 AM 30.2 °F 19.8 °F 24.8 °F 80% 30.09 in 6.2 mi ESE 13.8 mph - N/A   Mostly Cloudy
8:00 AM 30.2 °F 19.3 °F 24.8 °F 80% 30.09 in 6.2 mi ESE 15.0 mph - N/A   Mostly Cloudy
8:30 AM 30.2 °F 19.8 °F 26.6 °F 86% 30.12 in 6.2 mi ESE 13.8 mph - N/A   Mostly Cloudy
9:00 AM 30.2 °F 18.5 °F 26.6 °F 86% 30.12 in 6.2 mi East 17.3 mph - N/A   Mostly Cloudy
9:30 AM 30.2 °F 18.9 °F 26.6 °F 86% 30.12 in 6.2 mi ESE 16.1 mph - N/A   Mostly Cloudy
10:00 AM 31 °F - 26 °F 72% 30.17 in 9 mi ESE 15.7 mph - -   Mostly Cloudy
10:00 AM 30.2 °F 18.5 °F 26.6 °F 86% 30.12 in 6.2 mi East 17.3 mph - N/A   Mostly Cloudy
10:30 AM 30.2 °F 19.3 °F 26.6 °F 86% 30.15 in 6.2 mi East 15.0 mph - N/A   Mostly Cloudy
11:00 AM 32.0 °F 22.1 °F 26.6 °F 80% 30.15 in 6.2 mi East 13.8 mph - N/A   Mostly Cloudy
11:30 AM 32.0 °F 22.1 °F 26.6 °F 80% 30.15 in 6.2 mi East 13.8 mph - N/A   Mostly Cloudy
12:00 PM 32.0 °F 22.1 °F 26.6 °F 80% 30.15 in 6.2 mi ESE 13.8 mph - N/A   Mostly Cloudy
12:30 PM 32.0 °F 22.1 °F 26.6 °F 80% 30.15 in 6.2 mi East 13.8 mph - N/A   Mostly Cloudy
1:00 PM 33 °F - 27 °F 70% 30.20 in 9 mi ESE 13.4 mph - -   Mostly Cloudy
1:00 PM 33.8 °F 24.3 °F 28.4 °F 81% 30.18 in 6.2 mi ESE 13.8 mph - N/A   Mostly Cloudy
1:30 PM 33.8 °F 25.3 °F 28.4 °F 81% 30.18 in 6.2 mi ESE 11.5 mph - N/A   Mostly Cloudy
2:00 PM 33.8 °F 27.0 °F 28.4 °F 81% 30.18 in 6.2 mi ESE 8.1 mph - N/A   Mostly Cloudy
2:30 PM 33.8 °F 27.0 °F 28.4 °F 81% 30.18 in 6.2 mi East 8.1 mph - N/A   Mostly Cloudy
3:00 PM 33.8 °F 27.0 °F 28.4 °F 81% 30.18 in 6.2 mi East 8.1 mph - N/A   Mostly Cloudy
3:30 PM 33.8 °F 25.8 °F 28.4 °F 81% 30.18 in 6.2 mi East 10.4 mph - N/A   Mostly Cloudy
4:00 PM 34 °F - 28 °F 70% 30.24 in 9 mi East 11.2 mph - -   Mostly Cloudy
4:00 PM 33.8 °F 25.3 °F 28.4 °F 81% 30.21 in 6.2 mi East 11.5 mph - N/A   Mostly Cloudy
4:30 PM 33.8 °F 25.8 °F 28.4 °F 81% 30.21 in 6.2 mi East 10.4 mph - N/A   Mostly Cloudy
5:00 PM 33.8 °F 26.4 °F 28.4 °F 81% 30.21 in 6.2 mi East 9.2 mph - N/A   Mostly Cloudy
5:30 PM 33.8 °F 26.4 °F 28.4 °F 81% 30.24 in 6.2 mi East 9.2 mph - N/A   Mostly Cloudy
6:00 PM 33.8 °F 26.4 °F 28.4 °F 81% 30.24 in 6.2 mi East 9.2 mph - N/A   Mostly Cloudy
6:30 PM 33.8 °F 27.0 °F 28.4 °F 81% 30.24 in 6.2 mi East 8.1 mph - N/A   Mostly Cloudy
7:00 PM 33 °F - 28 °F 76% 30.27 in 12 mi East 8.9 mph - -   Mostly Cloudy
7:00 PM 33.8 °F 27.7 °F 28.4 °F 81% 30.24 in 6.2 mi East 6.9 mph - N/A   Mostly Cloudy
7:30 PM 33.8 °F 27.0 °F 28.4 °F 81% 30.24 in 6.2 mi East 8.1 mph - N/A   Mostly Cloudy
8:00 PM 33.8 °F 26.4 °F 30.2 °F 87% 30.24 in 6.2 mi East 9.2 mph - N/A   Mostly Cloudy
8:30 PM 33.8 °F 27.0 °F 30.2 °F 87% 30.24 in 6.2 mi East 8.1 mph - N/A   Mostly Cloudy
9:00 PM 33.8 °F 27.0 °F 30.2 °F 87% 30.27 in 6.2 mi East 8.1 mph - N/A   Mostly Cloudy
9:30 PM 33.8 °F 27.0 °F 30.2 °F 87% 30.27 in 6.2 mi East 8.1 mph - N/A   Mostly Cloudy
10:00 PM 33 °F - 29 °F 78% 30.31 in 9 mi East 6.7 mph - -   Overcast
10:00 PM 33.8 °F 27.0 °F 30.2 °F 87% 30.27 in 6.2 mi East 8.1 mph - N/A   Mostly Cloudy
10:30 PM 33.8 °F 27.7 °F 30.2 °F 87% 30.27 in 6.2 mi ENE 6.9 mph - N/A   Mostly Cloudy
11:00 PM 33.8 °F 27.0 °F 30.2 °F 87% 30.27 in 6.2 mi ENE 8.1 mph - N/A   Mostly Cloudy
11:30 PM 33.8 °F 27.0 °F 30.2 °F 87% 30.30 in 6.2 mi ENE 8.1 mph - N/A   Mostly Cloudy